Regional Weather Roundup
Issued by NWS Northern Indiana

Home | Current Version | Previous Version | Text Only | Print | Product List | Glossary Off
Versions: 1 2 3 4 5 6 7 8 9 10 11 12 13 14 15 16 17 18 19 20 21 22 23 24 25 26 27 28 29 30 31 32 33 34 35 36 37 38 39 40 41 42 43 44 45 46 47 48 49 50

000
ASUS43 KIWX 030500
RWRIWX

KIWX WEATHER ROUNDUP
NATIONAL WEATHER SERVICE NORTHERN INDIANA
100 AM EDT WED JUN 03 2015

NOTE: "FAIR" INDICATES FEW OR NO CLOUDS BELOW 12,000 FEET WITH NO
SIGNIFICANT WEATHER AND/OR OBSTRUCTIONS TO VISIBILITY.

* THESE STATIONS ARE NOT UNDER NWS QUALITY CONTROL. THEY ALSO MAY NOT
  REPORT WEATHER SUCH AS PRECIPITATION OR FOG.

INZ001>027-030600-
NORTHERN INDIANA

CITY           SKY/WX    TMP DP  RH WIND       PRES   REMARKS
SOUTH BEND     CLEAR     60  49  66 SE9       30.13S
GOSHEN         CLEAR     53  45  74 E5        30.13R
ANGOLA*        CLEAR     52  43  71 E5        30.14F
FORT WAYNE     CLEAR     51  45  79 NE7       30.12F
PERU/GRISSOM   MOCLDY    57  52  83 E3        30.10S

$$
INZ028>050-030600-
CENTRAL INDIANA

CITY           SKY/WX    TMP DP  RH WIND       PRES   REMARKS
LAFAYETTE      CLEAR     51  50  96 CALM      30.10S FOG
KOKOMO*        MOCLDY    55  52  88 E6        30.11S
MUNCIE*        CLEAR     54  50  86 SE8       30.10F
INDIANAPOLIS   PTCLDY    57  50  77 CALM      30.08S

$$
MIZ043>046-050>051-056>058-064>065-071>073-077>080-030600-
SOUTHWEST LOWER MICHIGAN

CITY           SKY/WX    TMP DP  RH WIND       PRES   REMARKS
BATTLE CREEK   CLEAR     55  44  66 S5        30.14F
BENTON HARBOR  CLEAR     51  47  86 SE6       30.11S
COLDWATER*     CLEAR     53  42  67 E3        30.14S
HILLSDALE*     CLEAR     54  46  74 E8        30.13F
HOLLAND        CLEAR     52  46  80 CALM      30.13R
GRAND RAPIDS   CLEAR     54  50  86 S6        30.12S
KALAMAZOO      CLEAR     57  44  62 S5        30.13F
STURGIS*       CLEAR     55  43  62 E3        30.13F
THREE RIVERS*  FAIR      57  42  57 SE5       30.14S

$$
OHZ001>008-015>018-024>025-030600-
NORTHWEST OHIO

CITY           SKY/WX    TMP DP  RH WIND       PRES   REMARKS
DEFIANCE       CLEAR     53  45  74 NE5       30.13F
FINDLAY        CLEAR     54  49  83 E6        30.12S
TOLEDO EXPRESS CLEAR     50  46  86 CALM      30.14S
TOLEDO METCALF CLEAR     56  49  77 NE5       30.15S
LIMA           CLEAR     53  48  83 NE3       30.12S

$$
AND FOR LAKE MICHIGAN COASTAL AND OPEN LAKE BUOY OBSERVATIONS

STATION/POSITION TEMP    WIND        PRES    VSBY  WAVE
                 AIR SEA DIR/SP/G                  HT/PER
                 (F)     (DEG/KT/KT) (MB)    (MI)  (FT/S)
CALUMET HARBOR    56      70/  5/  6   N/A
MICHIGAN CITY     56      70/  4/  5   N/A
BURNS HARBOR              80/  4/  5 1020.0S
SAINT JOSEPH      53      CALM  /  2 1020.7S
SOUTH LAKE BUOY   43 38  120/  8/ 10 1019.8F         0
4 MI NW BRIDGMAN  56 55  150/  6/  8   N/A           1
MICHIGAN CITY     56 56  110/  6/  6   N/A           1/ 2

$$
&&



USA.gov is the U.S. government's official web portal to all federal, state and local government web resources and services.